This is the latest recevied weather packets stored in our database for station/object XQ6AK-15. If no packets are shown the sender has not sent any weather packets the latest 10 day(s).
| Time | Temp. | Humidity | Pressure | Rain* | Wind** | Luminosity | Snow |
|---|---|---|---|---|---|---|---|
| 1788111208 | 8.33° C | 99% | 1010.4 hPa | 6.6 mm | - | 33 W/m² | - |
| 1788110904 | 8.89° C | 99% | 1010.5 hPa | 3.05 mm | - | 28 W/m² | - |
| 1788110601 | 8.89° C | 99% | 1010.5 hPa | 1.27 mm | - | 31 W/m² | - |
| 1788110296 | 8.89° C | 99% | 1010.7 hPa | 1.78 mm | - | 50 W/m² | - |
| 1788109992 | 8.89° C | 99% | 1010.7 hPa | 1.27 mm | - | 65 W/m² | - |
| 1788109686 | 8.89° C | 99% | 1010.8 hPa | 3.05 mm | - | 72 W/m² | - |
| 1788109386 | 8.89° C | 99% | 1011.1 hPa | 4.32 mm | - | 74 W/m² | - |
| 1788109084 | 8.89° C | 99% | 1010.9 hPa | 4.83 mm | - | 84 W/m² | - |
| 1788108780 | 8.89° C | 99% | 1010.9 hPa | 3.56 mm | - | 50 W/m² | - |
| 1788108472 | 8.89° C | 99% | 1011.1 hPa | 1.78 mm | - | 52 W/m² | - |
| 1788108167 | 8.89° C | 99% | 1010.9 hPa | 1.27 mm | - | 65 W/m² | - |
| 1788107864 | 8.89° C | 99% | 1011 hPa | 1.27 mm | - | 46 W/m² | - |
| 1788107559 | 8.89° C | 99% | 1010.9 hPa | 0 mm | - | 43 W/m² | - |
| 1788107253 | 8.89° C | 99% | 1011.1 hPa | 1.78 mm | - | 58 W/m² | - |
| 1788106949 | 9.44° C | 99% | 1011.1 hPa | 1.78 mm | - | 86 W/m² | - |
| 1788106644 | 8.89° C | 99% | 1011.2 hPa | 0 mm | - | 96 W/m² | - |
| 1788106338 | 8.89° C | 99% | 1011.3 hPa | 0 mm | - | 76 W/m² | - |
| 1788106034 | 8.89° C | 99% | 1011.3 hPa | 0 mm | - | 86 W/m² | - |
| 1788105729 | 8.89° C | 99% | 1011.3 hPa | 0 mm | - | 106 W/m² | - |
| 1788105426 | 9.44° C | 99% | 1011.3 hPa | 0 mm | - | 107 W/m² | - |
| 1788105121 | 8.89° C | 99% | 1011.3 hPa | 1.27 mm | - | 104 W/m² | - |
| 1788104816 | 8.89° C | 99% | 1011.4 hPa | 3.05 mm | - | 96 W/m² | - |
| 1788104512 | 8.89° C | 99% | 1011.5 hPa | 1.78 mm | - | 109 W/m² | - |
| 1788104209 | 8.89° C | 99% | 1011.5 hPa | 0 mm | - | 79 W/m² | - |
| 1788103909 | 8.89° C | 99% | 1011.5 hPa | 0 mm | - | 67 W/m² | - |
* Rain latest hour (hover to see other rain measurements)
** Current wind speed in m/s (hover to see current wind gust speed)